Home   Weather   Salem   Past weeks
Flag for USA

Past Weather in Salem, USA — Yesterday and Last 2 Weeks

Now
58 °F

Clear.


Feels Like: 58 °F
Forecast: 78 / 57 °F
Wind: 5 mph from West

Location: Kenosha Regional Airport
Current Time: Sep 23, 2020 at 2:34:34 am
Latest Report: Sep 23, 2020 at 1:53 am
Visibility: 10 mi
Pressure30.05 "Hg
Humidity: 87%
Dew Point: 54 °F
Location of SalemLocation

Past Weather in Salem — Graph

°F

Salem Temperature Yesterday

Maximum temperature yesterday: 78 °F (at 2:53 pm)
Minimum temperature yesterday: 53 °F (at 4:53 am)
Average temperature yesterday: 64 °F

High & Low Weather Summary for the Past Weeks

 TemperatureHumidityPressure
High82 °F (Sep 16, 2:53 pm)97% (Sep 14, 3:05 am)30.45 "Hg (Sep 14, 3:05 am)
Low38 °F (Sep 19, 5:53 am)36% (Sep 20, 12:53 pm)29.85 "Hg (Sep 12, 4:53 pm)
Average61 °F77%30.21 "Hg
* Reported Sep 8 12:11 am — Sep 23 12:53 am, Salem. Weather by CustomWeather, © 2020

Note: Actual official high and low records may vary slightly from our data, if they occured in-between our weather recording intervals... More about our weather records

Salem Weather History for the Previous 24 Hours

Scroll right to see more
 ConditionsComfort  
Time TempWeatherWind HumidityBarometerVisibility
12:53 am
Wed, Sep 23
59 °FClear.6 mph84%30.06 "Hg10 mi
11:53 pm
Tue, Sep 22
58 °FClear.5 mph87%30.06 "Hg10 mi
10:53 pm58 °FClear.6 mph87%30.08 "Hg7 mi
9:53 pm60 °FClear.3 mph86%30.07 "Hg8 mi
8:53 pm62 °FClear.5 mph83%30.09 "Hg10 mi
7:53 pm66 °FClear.5 mph73%30.08 "Hg10 mi
6:53 pm68 °FClear.6 mph68%30.08 "Hg10 mi
5:53 pm75 °FSunny.6 mph55%30.08 "Hg10 mi
4:53 pm78 °FSunny.7 mph48%30.08 "Hg10 mi
3:53 pm78 °FSunny.10 mph46%30.09 "Hg10 mi
2:53 pm78 °FSunny.6 mph46%30.11 "Hg10 mi
1:53 pm77 °FSunny.8 mph50%30.13 "Hg10 mi
12:53 pm76 °FSunny.10 mph54%30.16 "Hg10 mi
11:53 am74 °FSunny.9 mph56%30.18 "Hg10 mi
10:53 am72 °FSunny.8 mph57%30.19 "Hg10 mi
9:53 am67 °FSunny.9 mph63%30.21 "Hg10 mi
8:53 am60 °FSunny.6 mph75%30.21 "Hg10 mi
7:53 am58 °FSunny.3 mph78%30.22 "Hg10 mi
6:53 am54 °FSunny.5 mph80%30.21 "Hg10 mi
5:53 am54 °FClear.5 mph80%30.22 "Hg10 mi
4:53 am53 °FClear.No wind86%30.21 "Hg10 mi
3:53 am54 °FClear.3 mph90%30.22 "Hg10 mi
2:53 am54 °FClear.No wind90%30.22 "Hg10 mi
Weather by CustomWeather, © 2020

See weather overview